Overview Statistics Trail Chart Weather Telemetry Raw packets
 

This is the latest recevied weather packets stored in our database for station/object WD7OO. If no packets are shown the sender has not sent any weather packets the latest 10 day(s).

<< 80 81 82 83 84 85 86 >>
Time Temp. Humidity Pressure Rain* Wind** Luminosity Snow
1788044792 24.44° C 76% 1019.6 hPa 0 mm - 78 W/m² -
1788044487 24.44° C 75% 1019.7 hPa 0 mm - 73 W/m² -
1788044187 24.44° C 74% 1019.4 hPa 0 mm - 72 W/m² -
1788043882 25° C 75% 1019.4 hPa 0 mm - 73 W/m² -
1788043577 25° C 74% 1019.6 hPa 0 mm - 90 W/m² -
1788043272 25° C 75% 1019.7 hPa 0 mm - 97 W/m² -
1788042968 25° C 75% 1019.4 hPa 0 mm - 101 W/m² -
1788042663 24.44° C 75% 1019.6 hPa 0 mm - 91 W/m² -
1788042361 25° C 74% 1020 hPa 0 mm - 104 W/m² -
1788042056 24.44° C 72% 1020 hPa 0 mm - 104 W/m² -
1788041752 24.44° C 75% 1020.1 hPa 0 mm - 90 W/m² -
1788041447 24.44° C 74% 1020 hPa 0 mm - 66 W/m² -
1788041146 24.44° C 73% 1020.2 hPa 0 mm - 58 W/m² -
1788040841 24.44° C 73% 1020.3 hPa 0 mm - 60 W/m² -
1788040539 25° C 72% 1020.3 hPa 0 mm - 57 W/m² -
1788040236 25.56° C 70% 1020.2 hPa 0 mm - 63 W/m² -
1788039934 25.56° C 70% 1020.2 hPa 0 mm - 92 W/m² -
1788039630 26.11° C 67% 1020.2 hPa 0 mm - 134 W/m² -
1788039325 26.67° C 68% 1020.2 hPa 0 mm - 177 W/m² -
1788039021 26.67° C 69% 1020.2 hPa 0 mm - 302 W/m² -
1788038720 26.11° C 69% 1020.4 hPa 0 mm - 286 W/m² -
1788038415 26.11° C 70% 1020.1 hPa 0 mm - 203 W/m² -
1788038110 26.11° C 68% 1020.4 hPa 0 mm - 204 W/m² -
1788037810 26.11° C 67% 1020.3 hPa 0 mm - 196 W/m² -
1788037510 26.11° C 66% 1020.4 hPa 0 mm - 253 W/m² -

* Rain latest hour (hover to see other rain measurements)
** Current wind speed in m/s (hover to see current wind gust speed)